Location: Beugnon
(47.6222°N, 3.7850°E)
Time: 01:50:25
(UTC+00:00)

CZ-4C R/B - Pass Details

Date: 09 April 2020
Orbit: 637 x 1365 km, 63.4° (Epoch: 03 June)

Event Time Altitude Azimuth Distance (km) Brightness Sun altitude
Rises 19:00:21 0° 310° (NW) 3,541 7.0 -6.3°
Reaches altitude 10° 19:03:17 10° 325° (NW) 2,722 5.8 -6.8°
Maximum altitude 19:08:24 24° 17° (NNE) 2,097 4.3 -7.6°
Drops below altitude 10° 19:14:12 10° 68° (ENE) 3,133 4.7 -8.5°
Enters shadow 19:16:37 - 78° (ENE) 3,830 5.1 -8.9°
